Location: Duncanville
(32.6518°N, 96.9083°W)
Time: 10:38:31
(UTC+00:00)

Cosmos 773 Rocket - Pass Details

Date: 11 February 2026
Orbit: 741 x 772 km, 74.1° (Epoch: 8 March)

Event Time Altitude Azimuth Distance (km) Brightness Sun altitude
Rises 12:22:56 0° 337° (NNW) 3,237 6.9 -11.4°
Reaches altitude 10° 12:25:23 10° 332° (NNW) 2,303 6.1 -10.9°
Maximum altitude 12:30:25 51° 258° (WSW) 951 4.2 -9.8°
Drops below altitude 10° 12:35:24 10° 183° (S) 2,270 6.6 -8.8°
Sets 12:37:47 0° 178° (S) 3,185 7.4 -8.3°
